Tomahawk, WI

2:07 PM CDT on April 25, 2017 (GMT -0500)
Tomahawk

Weather History for KTKV - January, 2012

Change the Weather History Date:

Friday, January 27, 2012

  Actual Average (KRHI) Record (KRHI)
Temperature  
Mean Temperature 20 °F -  
Max Temperature 35 °F 22 °F 46 °F (2006)
Min Temperature 5 °F -2 °F -35 °F (1950)
Degree Days  
Heating Degree Days 45    
Moisture  
Dew Point 18 °F    
Average Humidity 75    
Maximum Humidity 93    
Minimum Humidity 33    
Precipitation  
Precipitation 0.01 in - - ()
Sea Level Pressure  
Sea Level Pressure 29.71 in    
Wind  
Wind Speed 5 mph (SW)    
Max Wind Speed 10 mph    
Max Gust Speed -    
Visibility 8 miles    
Events Snow    
Averages and records for this station are not official NWS values.
T = Trace of Precipitation, MM = Missing Value Source: NWS Daily Summary

Daily Weather History Graph

Daily Weather History Graph

Search for Another Location

Airport or City:

Trip Planner

Search our weather history database for the weather conditions in past years. The results will help you decide how hot, cold, wet, or windy it might be!

Date:

Astronomy

Jan. 27, 2012 Rise Set
Actual Time 7:26 AM CST 4:58 PM CST
Civil Twilight 6:54 AM CST 5:30 PM CST
Nautical Twilight 6:18 AM CST 6:06 PM CST
Astronomical Twilight 5:43 AM CST 6:41 PM CST
Moon 9:04 AM CST (1/27) 10:07 PM CST (1/27)
Length of Visible Light 10h 36m
Length of Day
9h 31m
Waxing Crescent, 20% of the Moon is Illuminated
Jan 27
Waxing Crescent
Jan 30
First Quarter
Feb 7
Full
Feb 14
Last Quarter
Feb 21
New

Hourly Weather History & Observations

Time (CST) Temp. Windchill Dew Point Humidity Pressure Visibility Wind Dir Wind Speed Gust Speed Precip Events Conditions
12:15 AM 30.2 °F 21.3 °F 21.2 °F 69% 29.64 in 10.0 mi WNW 10.4 mph - N/A   Overcast
12:35 AM 30.2 °F 22.6 °F 21.2 °F 69% 29.64 in 10.0 mi WNW 8.1 mph - N/A   Overcast
12:55 AM 28.4 °F 22.2 °F 21.2 °F 74% 29.65 in 10.0 mi WNW 5.8 mph - N/A   Mostly Cloudy
1:15 AM 26.6 °F 20.0 °F 19.4 °F 74% 29.65 in 10.0 mi West 5.8 mph - N/A   Scattered Clouds
1:35 AM 24.8 °F 17.9 °F 19.4 °F 80% 29.66 in 10.0 mi West 5.8 mph - N/A   Clear
1:55 AM 26.6 °F 19.1 °F 19.4 °F 74% 29.66 in 10.0 mi West 6.9 mph - N/A   Clear
2:15 AM 24.8 °F 16.1 °F 19.4 °F 80% 29.67 in 10.0 mi West 8.1 mph - N/A   Clear
2:35 AM 23.0 °F 14.7 °F 19.4 °F 86% 29.67 in 10.0 mi West 6.9 mph - N/A   Clear
2:55 AM 23.0 °F 14.7 °F 19.4 °F 86% 29.68 in 10.0 mi WNW 6.9 mph - N/A   Clear
3:15 AM 23.0 °F 14.7 °F 19.4 °F 86% 29.68 in 10.0 mi WNW 6.9 mph - N/A   Clear
3:35 AM 23.0 °F 14.7 °F 19.4 °F 86% 29.69 in 10.0 mi WNW 6.9 mph - N/A   Clear
3:55 AM 21.2 °F 12.6 °F 17.6 °F 86% 29.70 in 10.0 mi West 6.9 mph - N/A   Clear
4:15 AM 21.2 °F 12.6 °F 17.6 °F 86% 29.71 in 10.0 mi West 6.9 mph - N/A   Clear
4:35 AM 21.2 °F 14.9 °F 15.8 °F 80% 29.71 in 10.0 mi West 4.6 mph - N/A   Clear
4:55 AM 19.4 °F 14.3 °F 17.6 °F 93% 29.71 in 10.0 mi West 3.5 mph - N/A   Clear
5:15 AM 19.4 °F 14.3 °F 15.8 °F 86% 29.72 in 10.0 mi West 3.5 mph - N/A   Clear
5:35 AM 17.6 °F 12.3 °F 14.0 °F 86% 29.72 in 10.0 mi West 3.5 mph - N/A   Clear
5:55 AM 17.6 °F - 15.8 °F 93% 29.72 in 10.0 mi Calm Calm - N/A   Clear
6:35 AM 10.4 °F - 8.6 °F 92% 29.73 in 10.0 mi Calm Calm - N/A   Clear
6:55 AM 12.2 °F - 10.4 °F 92% 29.74 in 10.0 mi Calm Calm - N/A   Clear
7:15 AM 10.4 °F - 6.8 °F 85% 29.74 in 10.0 mi Calm Calm - N/A   Clear
7:35 AM 5.0 °F -2.1 °F 3.2 °F 92% 29.75 in 10.0 mi WSW 3.5 mph - N/A   Clear
7:55 AM 10.4 °F - 8.6 °F 92% 29.75 in 10.0 mi Calm Calm - N/A   Clear
8:15 AM 12.2 °F - 8.6 °F 85% 29.75 in 10.0 mi Calm Calm - N/A   Clear
8:35 AM 12.2 °F - 8.6 °F 85% 29.76 in 10.0 mi Calm Calm - N/A   Clear
8:55 AM 17.6 °F 12.3 °F 15.8 °F 93% 29.76 in 10.0 mi WSW 3.5 mph - N/A   Clear
9:15 AM 19.4 °F 12.8 °F 17.6 °F 93% 29.76 in 10.0 mi West 4.6 mph - N/A   Clear
9:35 AM 23.0 °F 18.4 °F 17.6 °F 80% 29.77 in 10.0 mi West 3.5 mph - N/A   Clear
9:55 AM 24.8 °F - 15.8 °F 69% 29.77 in 10.0 mi Calm Calm - N/A   Clear
10:35 AM 30.2 °F 26.7 °F 17.6 °F 60% 29.77 in 10.0 mi SSW 3.5 mph - N/A   Scattered Clouds
10:55 AM 30.2 °F 25.4 °F 15.8 °F 55% 29.78 in 10.0 mi West 4.6 mph - N/A   Clear
11:35 AM 32.0 °F - 14.0 °F 48% 29.76 in 10.0 mi Calm Calm - N/A   Scattered Clouds
11:55 AM 32.0 °F 28.7 °F 14.0 °F 48% 29.76 in 10.0 mi SSW 3.5 mph - N/A   Overcast
12:15 PM 35.6 °F 31.7 °F 14.0 °F 41% 29.75 in 10.0 mi South 4.6 mph - N/A   Overcast
12:35 PM 35.6 °F 32.8 °F 8.6 °F 33% 29.74 in 10.0 mi SSW 3.5 mph - N/A   Mostly Cloudy
1:15 PM 35.6 °F 31.7 °F 12.2 °F 38% 29.73 in 10.0 mi South 4.6 mph - N/A   Clear
1:35 PM 35.6 °F 32.8 °F 10.4 °F 35% 29.73 in 10.0 mi South 3.5 mph - N/A   Clear
1:55 PM 33.8 °F 30.8 °F 10.4 °F 38% 29.73 in 10.0 mi South 3.5 mph - N/A   Scattered Clouds
2:15 PM 32.0 °F 26.4 °F 10.4 °F 41% 29.73 in 10.0 mi SSW 5.8 mph - N/A   Mostly Cloudy
2:35 PM 32.0 °F 27.5 °F 8.6 °F 38% 29.72 in 10.0 mi SSW 4.6 mph - N/A   Overcast
2:55 PM 32.0 °F 27.5 °F 12.2 °F 44% 29.73 in 10.0 mi SSW 4.6 mph - N/A   Overcast
3:35 PM 32.0 °F 27.5 °F 15.8 °F 51% 29.71 in 10.0 mi South 4.6 mph - N/A   Overcast
3:55 PM 32.0 °F 26.4 °F 15.8 °F 51% 29.70 in 10.0 mi SSW 5.8 mph - N/A   Overcast
4:15 PM 32.0 °F 24.8 °F 19.4 °F 60% 29.70 in 10.0 mi SSW 8.1 mph - N/A   Overcast
4:35 PM 32.0 °F 26.4 °F 21.2 °F 64% 29.70 in 3.0 mi SSW 5.8 mph - N/A Snow Light Snow
4:55 PM 30.2 °F 26.7 °F 24.8 °F 80% 29.70 in 1.2 mi South 3.5 mph - N/A Snow Light Snow
5:15 PM 30.2 °F 24.3 °F 26.6 °F 86% 29.70 in 1.8 mi South 5.8 mph - N/A Snow Light Snow
5:35 PM 30.2 °F 24.3 °F 26.6 °F 86% 29.70 in 1.0 mi South 5.8 mph - N/A Snow Snow
5:55 PM 28.4 °F 23.3 °F 26.6 °F 93% 29.70 in 1.5 mi South 4.6 mph - N/A Snow Light Snow
6:15 PM 30.2 °F 26.7 °F 26.6 °F 86% 29.69 in 2.0 mi South 3.5 mph - N/A Snow Light Snow
6:35 PM 30.2 °F 24.3 °F 28.4 °F 93% 29.69 in 2.5 mi South 5.8 mph - N/A Snow Light Snow
6:55 PM 30.2 °F 26.7 °F 28.4 °F 93% 29.69 in 1.8 mi South 3.5 mph - N/A Snow Light Snow
7:15 PM 30.2 °F 26.7 °F 28.4 °F 93% 29.70 in 2.5 mi South 3.5 mph - 0.01 in Snow Light Snow
7:35 PM 30.2 °F 25.4 °F 28.4 °F 93% 29.70 in 4.0 mi SSW 4.6 mph - 0.01 in Snow Light Snow
7:55 PM 30.2 °F 25.4 °F 28.4 °F 93% 29.69 in 2.0 mi SSW 4.6 mph - 0.01 in Snow Light Snow
8:15 PM 30.2 °F 26.7 °F 28.4 °F 93% 29.68 in 2.5 mi SSW 3.5 mph - N/A Snow Light Snow
8:35 PM 30.2 °F 26.7 °F 28.4 °F 93% 29.68 in 4.0 mi SSW 3.5 mph - N/A Snow Light Snow
8:55 PM 30.2 °F 26.7 °F 28.4 °F 93% 29.68 in 5.0 mi SSW 3.5 mph - N/A Snow Light Snow
9:15 PM 30.2 °F - 28.4 °F 93% 29.68 in 2.5 mi Calm Calm - N/A Snow Light Snow
9:35 PM 30.2 °F 26.7 °F 28.4 °F 93% 29.68 in 2.5 mi WSW 3.5 mph - 0.01 in Snow Light Snow
9:55 PM 30.2 °F 21.3 °F 28.4 °F 93% 29.68 in 4.0 mi WNW 10.4 mph - 0.01 in Snow Light Snow
10:15 PM 30.2 °F 22.6 °F 26.6 °F 86% 29.69 in 4.0 mi NW 8.1 mph - N/A Snow Light Snow
10:35 PM 28.4 °F 18.5 °F 26.6 °F 93% 29.70 in 10.0 mi NW 11.5 mph - N/A Snow Light Snow
10:55 PM 28.4 °F 20.4 °F 24.8 °F 86% 29.70 in 10.0 mi NW 8.1 mph 16.1 mph N/A   Overcast
11:15 PM 28.4 °F 21.2 °F 23.0 °F 80% 29.71 in 10.0 mi NW 6.9 mph - N/A   Overcast
11:35 PM 28.4 °F 19.1 °F 23.0 °F 80% 29.71 in 10.0 mi NW 10.4 mph - N/A   Overcast
11:55 PM 26.6 °F 17.5 °F 21.2 °F 80% 29.72 in 10.0 mi WNW 9.2 mph - N/A   Overcast